timestamp,wind_dir_avg,wind_spd_avg,wind_spd_max_dir,wind_spd_gust,battery_voltage,lat,long
2023-10-19 00:04:00+00:00,279.0,5.22,283.0,5.85,12.41,47.59359,-54.27349
2023-10-19 00:14:00+00:00,287.0,5.21,286.0,5.79,12.41,47.59359,-54.27349
2023-10-19 00:24:00+00:00,286.0,4.65,284.0,5.0,12.41,47.59359,-54.27349
2023-10-19 00:34:00+00:00,279.0,3.65,278.0,3.99,12.41,47.59359,-54.27349
2023-10-19 00:44:00+00:00,286.0,3.51,284.0,3.87,12.41,47.59359,-54.27349
2023-10-19 00:54:00+00:00,283.0,3.83,287.0,4.22,12.41,47.59359,-54.27349
2023-10-19 01:04:00+00:00,271.0,3.42,269.0,3.86,12.41,47.59359,-54.27349
2023-10-19 01:14:01+00:00,266.0,2.56,265.0,2.91,12.33,47.59359,-54.27349
2023-10-19 01:24:01+00:00,279.0,3.15,278.0,3.83,12.33,47.59359,-54.27349
2023-10-19 01:34:01+00:00,256.0,3.93,257.0,4.26,12.33,47.59359,-54.27349
2023-10-19 01:44:01+00:00,242.0,4.07,236.0,4.49,12.33,47.59359,-54.27349
2023-10-19 01:54:01+00:00,260.0,3.7,258.0,4.12,12.33,47.59359,-54.27349
2023-10-19 02:04:01+00:00,273.0,4.06,273.0,4.63,12.33,47.59359,-54.27349
2023-10-19 02:14:01+00:00,268.0,4.59,259.0,5.41,12.41,47.59359,-54.27349
2023-10-19 02:24:01+00:00,277.0,4.93,278.0,5.45,12.41,47.59359,-54.27349
2023-10-19 02:34:01+00:00,268.0,5.06,272.0,5.72,12.41,47.59359,-54.27349
2023-10-19 02:44:01+00:00,254.0,4.1,254.0,4.66,12.41,47.59359,-54.27349
2023-10-19 02:54:01+00:00,251.0,5.24,251.0,5.86,12.41,47.59359,-54.27349
2023-10-19 03:04:01+00:00,262.0,3.9,270.0,4.59,12.41,47.59359,-54.27349
2023-10-19 03:14:00+00:00,257.0,3.96,262.0,4.4,12.33,47.59359,-54.27349
2023-10-19 03:24:00+00:00,278.0,3.8,282.0,4.35,12.33,47.59359,-54.27349
2023-10-19 03:34:00+00:00,289.0,4.54,288.0,6.27,12.33,47.59359,-54.27349
2023-10-19 03:44:00+00:00,272.0,4.92,278.0,5.85,12.33,47.59359,-54.27349
2023-10-19 03:54:00+00:00,282.0,5.27,294.0,6.09,12.33,47.59359,-54.27349
2023-10-19 04:04:00+00:00,280.0,4.61,275.0,5.43,12.33,47.59359,-54.27349
2023-10-19 04:14:01+00:00,282.0,4.82,276.0,5.93,12.25,47.59359,-54.27349
2023-10-19 04:24:01+00:00,296.0,6.1,302.0,7.1,12.25,47.59359,-54.27349
2023-10-19 04:34:01+00:00,256.0,5.22,242.0,6.33,12.25,47.59359,-54.27349
2023-10-19 04:44:01+00:00,239.0,5.36,245.0,5.83,12.25,47.59359,-54.27349
2023-10-19 04:54:01+00:00,252.0,4.58,262.0,5.3,12.25,47.59359,-54.27349
2023-10-19 05:04:01+00:00,266.0,5.71,266.0,6.21,12.25,47.59359,-54.27349
2023-10-19 05:14:00+00:00,266.0,6.13,265.0,7.19,12.33,47.59359,-54.27349
2023-10-19 05:24:00+00:00,262.0,5.87,268.0,6.68,12.33,47.59359,-54.27349
2023-10-19 05:34:00+00:00,264.0,6.12,268.0,7.53,12.33,47.59359,-54.27349
2023-10-19 05:44:00+00:00,287.0,5.92,284.0,6.61,12.33,47.59359,-54.27349
2023-10-19 05:54:00+00:00,280.0,6.06,282.0,6.71,12.33,47.59359,-54.27349
2023-10-19 06:04:00+00:00,257.0,5.49,255.0,6.25,12.33,47.59359,-54.27349
2023-10-19 06:14:01+00:00,273.0,4.7,281.0,5.38,12.33,47.59359,-54.27349
2023-10-19 06:24:01+00:00,288.0,5.04,288.0,5.73,12.33,47.59359,-54.27349
2023-10-19 06:34:01+00:00,287.0,4.24,295.0,5.5,12.33,47.59359,-54.27349
2023-10-19 06:44:01+00:00,287.0,3.69,289.0,4.72,12.33,47.59359,-54.27349
2023-10-19 06:54:01+00:00,277.0,3.14,278.0,3.52,12.33,47.59359,-54.27349
2023-10-19 07:04:01+00:00,252.0,3.52,254.0,4.3,12.33,47.59359,-54.27349
2023-10-19 07:14:01+00:00,233.0,3.74,237.0,4.42,12.25,47.59359,-54.27349
2023-10-19 07:24:01+00:00,228.0,3.98,230.0,4.59,12.25,47.59359,-54.27349
2023-10-19 07:34:01+00:00,228.0,4.67,223.0,5.34,12.25,47.59359,-54.27349
2023-10-19 07:44:01+00:00,231.0,4.17,230.0,4.74,12.25,47.59359,-54.27349
2023-10-19 07:54:01+00:00,239.0,5.1,235.0,5.89,12.25,47.59359,-54.27349
2023-10-19 08:04:01+00:00,253.0,4.95,243.0,5.87,12.25,47.59359,-54.27349
2023-10-19 08:14:00+00:00,250.0,5.38,250.0,6.08,12.25,47.59359,-54.27349
2023-10-19 08:24:00+00:00,256.0,5.32,251.0,6.01,12.25,47.59359,-54.27349
2023-10-19 08:34:00+00:00,266.0,5.18,269.0,6.7,12.25,47.59359,-54.27349
2023-10-19 08:44:00+00:00,266.0,5.2,265.0,5.93,12.25,47.59359,-54.27349
2023-10-19 08:54:00+00:00,252.0,4.88,251.0,5.53,12.25,47.59359,-54.27349
2023-10-19 09:04:00+00:00,232.0,5.32,233.0,5.83,12.25,47.59359,-54.27349
2023-10-19 09:14:01+00:00,228.0,4.76,229.0,5.46,12.25,47.59359,-54.27349
2023-10-19 09:24:01+00:00,234.0,4.92,237.0,5.62,12.25,47.59359,-54.27349
2023-10-19 09:34:01+00:00,240.0,5.2,248.0,5.64,12.25,47.59359,-54.27349
2023-10-19 09:44:01+00:00,229.0,5.19,230.0,5.83,12.25,47.59359,-54.27349
2023-10-19 09:54:01+00:00,238.0,4.85,247.0,5.77,12.25,47.59359,-54.27349
2023-10-19 10:04:01+00:00,236.0,5.79,243.0,6.68,12.25,47.59359,-54.27349
2023-10-19 10:14:01+00:00,237.0,5.82,238.0,6.44,12.17,47.59359,-54.27349
2023-10-19 10:24:01+00:00,234.0,5.93,233.0,6.44,12.17,47.59359,-54.27349
2023-10-19 10:34:01+00:00,242.0,6.04,241.0,6.56,12.17,47.59359,-54.27349
2023-10-19 10:44:01+00:00,235.0,5.17,242.0,5.62,12.17,47.59359,-54.27349
2023-10-19 10:54:01+00:00,247.0,5.41,246.0,5.86,12.17,47.59359,-54.27349
2023-10-19 11:04:01+00:00,251.0,5.08,249.0,5.67,12.17,47.59359,-54.27349
2023-10-19 11:14:01+00:00,260.0,4.68,261.0,5.39,12.57,47.59359,-54.27349
2023-10-19 11:24:01+00:00,263.0,4.49,272.0,4.93,12.57,47.59359,-54.27349
2023-10-19 11:34:01+00:00,272.0,4.72,272.0,5.49,12.57,47.59359,-54.27349
2023-10-19 11:44:01+00:00,262.0,4.35,263.0,4.75,12.57,47.59359,-54.27349
2023-10-19 11:54:01+00:00,267.0,3.86,263.0,4.55,12.57,47.59359,-54.27349
2023-10-19 12:04:01+00:00,256.0,3.84,256.0,4.29,12.57,47.59359,-54.27349
2023-10-19 12:14:00+00:00,242.0,4.23,238.0,4.98,14.32,47.59359,-54.27349
2023-10-19 12:24:00+00:00,238.0,5.29,241.0,5.69,14.32,47.59359,-54.27349
2023-10-19 12:34:00+00:00,226.0,5.23,225.0,5.86,14.32,47.59359,-54.27349
2023-10-19 12:44:00+00:00,225.0,5.04,227.0,6.17,14.32,47.59359,-54.27349
2023-10-19 12:54:00+00:00,231.0,4.89,234.0,5.67,14.32,47.59359,-54.27349
2023-10-19 13:04:00+00:00,235.0,5.64,239.0,6.37,14.32,47.59359,-54.27349
2023-10-19 13:14:00+00:00,238.0,4.74,238.0,5.37,14.16,47.59359,-54.27349
2023-10-19 13:24:00+00:00,242.0,5.12,239.0,5.98,14.16,47.59359,-54.27349
2023-10-19 13:34:00+00:00,237.0,4.58,235.0,5.22,14.16,47.59359,-54.27349
2023-10-19 13:44:00+00:00,262.0,6.12,268.0,8.56,14.16,47.59359,-54.27349
2023-10-19 13:54:00+00:00,272.0,8.24,269.0,9.02,14.16,47.59359,-54.27349
2023-10-19 14:04:00+00:00,273.0,8.07,272.0,9.19,14.16,47.59359,-54.27349
2023-10-19 14:14:01+00:00,276.0,6.08,284.0,7.78,13.76,47.59359,-54.27349
2023-10-19 14:24:01+00:00,273.0,7.97,270.0,9.32,13.76,47.59359,-54.27349
2023-10-19 14:34:01+00:00,274.0,6.89,278.0,7.65,13.76,47.59359,-54.27349
2023-10-19 14:44:01+00:00,274.0,7.31,275.0,8.13,13.76,47.59359,-54.27349
2023-10-19 14:54:01+00:00,252.0,6.49,251.0,7.6,13.76,47.59359,-54.27349
2023-10-19 15:04:01+00:00,240.0,5.89,237.0,7.03,13.76,47.59359,-54.27349
2023-10-19 15:14:01+00:00,237.0,5.73,238.0,6.58,13.84,47.59359,-54.27349
2023-10-19 15:24:01+00:00,233.0,4.99,239.0,5.9,13.84,47.59359,-54.27349
2023-10-19 15:34:01+00:00,254.0,6.96,252.0,7.93,13.84,47.59359,-54.27349
2023-10-19 15:44:01+00:00,253.0,5.8,256.0,6.49,13.84,47.59359,-54.27349
2023-10-19 15:54:01+00:00,270.0,6.18,269.0,6.91,13.84,47.59359,-54.27349
2023-10-19 16:04:01+00:00,267.0,5.3,270.0,5.91,13.84,47.59359,-54.27349
2023-10-19 16:14:01+00:00,273.0,5.97,278.0,7.33,13.76,47.59359,-54.27349
2023-10-19 16:24:01+00:00,260.0,5.9,262.0,6.96,13.76,47.59359,-54.27349
2023-10-19 16:34:01+00:00,267.0,5.87,271.0,6.71,13.76,47.59359,-54.27349
2023-10-19 16:44:01+00:00,264.0,5.04,270.0,5.68,13.76,47.59359,-54.27349
2023-10-19 16:54:01+00:00,252.0,8.17,247.0,10.29,13.76,47.59359,-54.27349
2023-10-19 17:04:01+00:00,262.0,7.45,263.0,8.34,13.76,47.59359,-54.27349
2023-10-19 17:14:00+00:00,260.0,8.55,259.0,9.76,14.4,47.59359,-54.27349
2023-10-19 17:24:00+00:00,253.0,9.43,247.0,10.89,14.4,47.59359,-54.27349
2023-10-19 17:34:00+00:00,247.0,8.79,248.0,10.13,14.4,47.59359,-54.27349
2023-10-19 17:44:00+00:00,249.0,9.02,244.0,11.24,14.4,47.59359,-54.27349
2023-10-19 17:54:00+00:00,253.0,10.28,253.0,11.21,14.4,47.59359,-54.27349
2023-10-19 18:04:00+00:00,252.0,8.78,248.0,10.41,14.4,47.59359,-54.27349
2023-10-19 18:14:01+00:00,249.0,9.49,248.0,10.79,13.68,47.59359,-54.27349
2023-10-19 18:24:01+00:00,250.0,8.4,248.0,9.66,13.68,47.59359,-54.27349
2023-10-19 18:34:01+00:00,268.0,6.71,263.0,8.05,13.68,47.59359,-54.27349
2023-10-19 18:44:01+00:00,271.0,5.98,280.0,7.07,13.68,47.59359,-54.27349
2023-10-19 18:54:01+00:00,260.0,8.13,260.0,9.27,13.68,47.59359,-54.27349
2023-10-19 19:04:01+00:00,267.0,8.5,266.0,11.42,13.68,47.59359,-54.27349
2023-10-19 19:14:01+00:00,259.0,10.04,256.0,11.35,13.6,47.59359,-54.27349
2023-10-19 19:24:01+00:00,259.0,9.18,261.0,10.36,13.6,47.59359,-54.27349
2023-10-19 19:34:01+00:00,268.0,9.02,273.0,10.76,13.6,47.59359,-54.27349
2023-10-19 19:44:01+00:00,264.0,6.26,271.0,7.35,13.6,47.59359,-54.27349
2023-10-19 19:54:01+00:00,253.0,7.06,256.0,8.11,13.6,47.59359,-54.27349
2023-10-19 20:04:01+00:00,250.0,8.44,257.0,10.07,13.6,47.59359,-54.27349
2023-10-19 20:14:00+00:00,253.0,7.87,258.0,8.77,13.44,47.59359,-54.27349
2023-10-19 20:24:00+00:00,245.0,7.14,243.0,7.89,13.44,47.59359,-54.27349
2023-10-19 20:34:00+00:00,245.0,6.83,243.0,7.77,13.44,47.59359,-54.27349
2023-10-19 20:44:00+00:00,239.0,6.05,243.0,6.87,13.44,47.59359,-54.27349
2023-10-19 20:54:00+00:00,246.0,8.49,250.0,9.61,13.44,47.59359,-54.27349
2023-10-19 21:04:00+00:00,243.0,8.24,249.0,10.56,13.44,47.59359,-54.27349
2023-10-19 21:14:01+00:00,239.0,7.73,241.0,8.8,12.81,47.59359,-54.27349
2023-10-19 21:24:01+00:00,239.0,7.31,243.0,8.32,12.81,47.59359,-54.27349
2023-10-19 21:34:01+00:00,235.0,9.02,238.0,10.71,12.81,47.59359,-54.27349
2023-10-19 21:44:01+00:00,236.0,8.78,239.0,10.13,12.81,47.59359,-54.27349
2023-10-19 21:54:01+00:00,234.0,8.31,237.0,9.71,12.81,47.59359,-54.27349
2023-10-19 22:04:01+00:00,228.0,7.88,228.0,8.8,12.81,47.59359,-54.27349
2023-10-19 22:14:01+00:00,234.0,8.63,236.0,10.31,12.49,47.59359,-54.27349
2023-10-19 22:24:01+00:00,233.0,8.07,238.0,9.58,12.49,47.59359,-54.27349
2023-10-19 22:34:01+00:00,235.0,7.64,238.0,8.44,12.49,47.59359,-54.27349
2023-10-19 22:44:01+00:00,232.0,8.06,230.0,8.97,12.49,47.59359,-54.27349
2023-10-19 22:54:01+00:00,232.0,7.77,239.0,9.73,12.49,47.59359,-54.27349
2023-10-19 23:04:01+00:00,238.0,7.31,244.0,8.82,12.49,47.59359,-54.27349
2023-10-19 23:14:01+00:00,235.0,7.5,239.0,8.72,12.49,47.59359,-54.27349
2023-10-19 23:24:01+00:00,232.0,7.99,233.0,9.4,12.49,47.59359,-54.27349
2023-10-19 23:34:01+00:00,230.0,6.91,235.0,8.37,12.49,47.59359,-54.27349
2023-10-19 23:44:01+00:00,232.0,7.66,232.0,9.11,12.49,47.59359,-54.27349
2023-10-19 23:54:01+00:00,233.0,8.36,231.0,9.42,12.49,47.59359,-54.27349
